TimeBST,TemperatureF,Dew PointF,Humidity,Sea Level PressureIn,VisibilityMPH,Wind Direction,Wind SpeedMPH,Gust SpeedMPH,PrecipitationIn,Events,Conditions,WindDirDegrees,DateUTC
12:20 AM,46.4,41.0,81,30.45,-9999.0,SW,5.8,-,N/A,,Clear,230,2013-06-02 23:20:00
12:50 AM,46.4,42.8,87,30.45,-9999.0,WSW,5.8,-,N/A,,Clear,240,2013-06-02 23:50:00
1:20 AM,44.6,41.0,87,30.45,-9999.0,WSW,5.8,-,N/A,,Clear,250,2013-06-03 00:20:00
1:50 AM,46.4,42.8,87,30.45,-9999.0,West,5.8,-,N/A,,Clear,260,2013-06-03 00:50:00
2:20 AM,46.4,42.8,87,30.45,6.2,West,5.8,-,N/A,,Unknown,260,2013-06-03 01:20:00
2:50 AM,46.4,42.8,87,30.45,-9999.0,West,4.6,-,N/A,,Clear,260,2013-06-03 01:50:00
3:20 AM,44.6,42.8,93,30.45,-9999.0,West,5.8,-,N/A,,Clear,260,2013-06-03 02:20:00
3:50 AM,44.6,42.8,93,30.45,-9999.0,West,4.6,-,N/A,,Clear,260,2013-06-03 02:50:00
4:20 AM,46.4,42.8,87,30.45,-9999.0,West,5.8,-,N/A,,Clear,260,2013-06-03 03:20:00
4:50 AM,44.6,42.8,93,30.45,6.2,West,4.6,-,N/A,,Mostly Cloudy,260,2013-06-03 03:50:00
5:20 AM,46.4,44.6,93,30.45,6.2,Variable,3.5,-,N/A,,Mostly Cloudy,0,2013-06-03 04:20:00
5:50 AM,50.0,46.4,87,30.45,6.2,WSW,5.8,-,N/A,,Overcast,250,2013-06-03 04:50:00
6:20 AM,51.8,46.4,82,30.48,6.2,Variable,3.5,-,N/A,,Overcast,0,2013-06-03 05:20:00
6:50 AM,51.8,46.4,82,30.48,6.2,WSW,6.9,-,N/A,,Overcast,250,2013-06-03 05:50:00
7:20 AM,53.6,46.4,77,30.48,6.2,WSW,5.8,-,N/A,,Mostly Cloudy,240,2013-06-03 06:20:00
7:50 AM,53.6,48.2,82,30.48,6.2,West,3.5,-,N/A,,Mostly Cloudy,280,2013-06-03 06:50:00
8:20 AM,53.6,48.2,82,30.48,6.2,Variable,2.3,-,N/A,,Mostly Cloudy,0,2013-06-03 07:20:00
8:50 AM,55.4,48.2,77,30.48,6.2,Variable,2.3,-,N/A,,Mostly Cloudy,0,2013-06-03 07:50:00
9:20 AM,57.2,50.0,77,30.48,6.2,Variable,3.5,-,N/A,,Mostly Cloudy,0,2013-06-03 08:20:00
9:50 AM,57.2,50.0,77,30.48,6.2,WSW,5.8,-,N/A,,Mostly Cloudy,240,2013-06-03 08:50:00
10:20 AM,57.2,51.8,82,30.48,6.2,West,2.3,-,N/A,,Mostly Cloudy,260,2013-06-03 09:20:00
10:50 AM,59.0,51.8,77,30.48,6.2,Variable,3.5,-,N/A,,Overcast,0,2013-06-03 09:50:00
11:20 AM,59.0,51.8,77,30.48,6.2,Variable,3.5,-,N/A,,Mostly Cloudy,0,2013-06-03 10:20:00
11:50 AM,60.8,53.6,77,30.48,6.2,SW,5.8,-,N/A,,Mostly Cloudy,230,2013-06-03 10:50:00
12:20 PM,62.6,53.6,72,30.48,6.2,Variable,4.6,-,N/A,,Mostly Cloudy,0,2013-06-03 11:20:00
12:50 PM,62.6,53.6,72,30.48,6.2,West,5.8,-,N/A,,Mostly Cloudy,280,2013-06-03 11:50:00
1:20 PM,62.6,53.6,72,30.48,6.2,WNW,4.6,-,N/A,,Mostly Cloudy,290,2013-06-03 12:20:00
1:50 PM,64.4,53.6,68,30.48,6.2,WNW,4.6,-,N/A,,Mostly Cloudy,290,2013-06-03 12:50:00
2:20 PM,66.2,53.6,64,30.48,6.2,Variable,5.8,-,N/A,,Scattered Clouds,0,2013-06-03 13:20:00
2:50 PM,68.0,51.8,56,30.48,6.2,Variable,3.5,-,N/A,,Scattered Clouds,0,2013-06-03 13:50:00
3:20 PM,68.0,51.8,56,30.48,6.2,Variable,3.5,-,N/A,,Scattered Clouds,0,2013-06-03 14:20:00
3:50 PM,68.0,53.6,60,30.48,6.2,Variable,3.5,-,N/A,,Mostly Cloudy,0,2013-06-03 14:50:00
4:20 PM,68.0,51.8,56,30.48,6.2,Variable,3.5,-,N/A,,Mostly Cloudy,0,2013-06-03 15:20:00
4:50 PM,68.0,53.6,60,30.48,6.2,Variable,3.5,-,N/A,,Mostly Cloudy,0,2013-06-03 15:50:00
5:20 PM,68.0,53.6,60,30.45,6.2,Variable,3.5,-,N/A,,Scattered Clouds,0,2013-06-03 16:20:00
5:50 PM,68.0,53.6,60,30.45,6.2,West,5.8,-,N/A,,Scattered Clouds,260,2013-06-03 16:50:00
6:20 PM,66.2,51.8,60,30.45,6.2,Variable,2.3,-,N/A,,Scattered Clouds,0,2013-06-03 17:20:00
6:50 PM,66.2,53.6,64,30.45,6.2,Variable,3.5,-,N/A,,Scattered Clouds,0,2013-06-03 17:50:00
7:20 PM,66.2,53.6,64,30.45,6.2,NE,4.6,-,N/A,,Scattered Clouds,50,2013-06-03 18:20:00
7:50 PM,59.0,51.8,77,30.48,6.2,NE,6.9,-,N/A,,Scattered Clouds,50,2013-06-03 18:50:00
8:20 PM,57.2,51.8,82,30.48,6.2,NE,8.1,-,N/A,,Scattered Clouds,40,2013-06-03 19:20:00
8:50 PM,57.2,51.8,82,30.48,6.2,NE,5.8,-,N/A,,Scattered Clouds,50,2013-06-03 19:50:00
9:20 PM,55.4,51.8,88,30.48,6.2,NE,6.9,-,N/A,,Scattered Clouds,50,2013-06-03 20:20:00
9:50 PM,55.4,51.8,88,30.48,6.2,NE,6.9,-,N/A,,Scattered Clouds,50,2013-06-03 20:50:00
10:20 PM,55.4,50.0,82,30.48,6.2,NE,5.8,-,N/A,,Unknown,40,2013-06-03 21:20:00
10:50 PM,53.6,50.0,88,30.51,6.2,NE,8.1,-,N/A,,Unknown,50,2013-06-03 21:50:00
11:20 PM,53.6,50.0,88,30.51,6.2,ENE,6.9,-,N/A,,Mostly Cloudy,60,2013-06-03 22:20:00
11:50 PM,53.6,50.0,88,30.51,6.2,ENE,5.8,-,N/A,,Mostly Cloudy,60,2013-06-03 22:50:00